Find Starlink 5406

NORAD ID: 54860 Int'l Des: 2022-177 Owner: SPXS Country: US Constellation: starlink operational
LEOCIRCULAR

現在のビュー

3D地球を読み込み中...

Starlink 5406について

説明を読み込み中...

次回通過

Passes for default location (London). Set your location on the main map for personalized predictions.

高度履歴

Loading altitude history...

軌道要素

1 54860U 22177AS 26150.06596483 .00000069 00000-0 12018-4 0 9998
2 54860 43.0030 22.2122 0001398 253.4723 106.5975 15.27577074189537
Epoch: May 30, 2026 • Age: 16 hours

現在のステータス

高度 488.8 km
速度 7.62 km/s
衛星直下点 -25.10°S, 156.27°W
打ち上げ日 Dec 28, 2022
運用期間 3.4 years
タイプ internet

技術仕様

分類 Payload
質量 305.00 kg
乾燥質量 290.00 kg
総質量 305.00 kg
長さ 0.20 m
直径 2.80 m
スパン 9.00 m
形状 Box + pan
製造者 SPXS
バスタイプ Starlink
フェーズステータス In Orbit
所有者/国 SPXS/US

Most Searched